Weather History for Ashtabula, OH

Change the Weather History Date:

Friday, December 7, 2012

  Actual Average (KYNG) Record (KYNG)
Temperature  
Mean Temperature 41 °F 33 °F  
Max Temperature 45 °F 39 °F 67 °F (1998)
Min Temperature 37 °F 27 °F 7 °F (1958)
Degree Days  
Heating Degree Days 24 32  
Month to date heating degree days 216  
Since 1 July heating degree days 1545  
Cooling Degree Days 0 0  
Month to date cooling degree days 0  
Year to date cooling degree days 544  
Moisture  
Dew Point 38 °F    
Average Humidity 85    
Maximum Humidity 93    
Minimum Humidity 59    
Precipitation  
Precipitation 0.08 in 0.10 in 1.19 in (1971)
Month to date precipitation 0.70  
Year to date precipitation 36.62  
Snow  
Snow 0.00 in 0.50 in - ()
Month to date snowfall 2.9  
Since 1 July snowfall 7.3  
Snow Depth -    
Sea Level Pressure  
Sea Level Pressure 29.96 in    
Wind  
Wind Speed 4 mph (South)    
Max Wind Speed 8 mph    
Max Gust Speed -    
Visibility 5 miles    
Events Rain    
T = Trace of Precipitation, MM = Missing Value Source: NWS Daily Summary

Daily Weather History Graph

Daily Weather History Graph

Search for Another Location

Airport:

Trip Planner

Search our weather history database for the weather conditions in past years. The results will help you decide how hot, cold, wet, or windy it might be!

Date:

Astronomy

Dec. 07, 2012 Rise Set
Actual Time 7:36 AM EST 4:51 PM EST
Civil Twilight 7:05 AM EST 5:23 PM EST
Nautical Twilight 6:30 AM EST 5:58 PM EST
Astronomical Twilight 5:57 AM EST 6:31 PM EST
Moon 12:49 AM EST (12/7) 12:52 PM EST (12/7)
Length of Visible Light 10h 17m
Length of Day
9h 14m
Last Quarter, 39% of the Moon is Illuminated
Dec 7
Last Quarter
Dec 13
New
Dec 20
First Quarter
Dec 28
Full
Jan 4
Last Quarter

Hourly Weather History & Observations

Time (EST) Temp. Windchill Dew Point Humidity Pressure Visibility Wind Dir Wind Speed Gust Speed Precip Events Conditions
12:53 AM 37.0 °F 31.6 °F 24.1 °F 59% 30.02 in 10.0 mi South 6.9 mph - N/A   Clear
1:53 AM 37.0 °F 31.0 °F 24.1 °F 59% 30.01 in 10.0 mi SSE 8.1 mph - N/A   Clear
2:53 AM 37.0 °F 33.3 °F 26.1 °F 65% 30.01 in 10.0 mi South 4.6 mph - N/A   Partly Cloudy
3:53 AM 37.0 °F 31.6 °F 28.9 °F 73% 29.99 in 10.0 mi SSE 6.9 mph - 0.01 in   Overcast
4:53 AM 37.9 °F 34.4 °F 30.9 °F 76% 30.01 in 10.0 mi SSW 4.6 mph - 0.00 in   Overcast
5:53 AM 37.0 °F 33.3 °F 34.0 °F 89% 30.00 in 9.0 mi South 4.6 mph - 0.03 in   Overcast
6:53 AM 37.9 °F - 35.1 °F 89% 29.99 in 8.0 mi Calm Calm - N/A   Overcast
7:53 AM 39.0 °F 34.8 °F 36.0 °F 89% 30.01 in 8.0 mi South 5.8 mph - N/A   Overcast
8:51 AM 39.2 °F - 37.4 °F 93% 29.98 in 4.0 mi Calm Calm - N/A   Overcast
8:53 AM 39.9 °F - 37.0 °F 89% 30.00 in 3.0 mi Calm Calm - N/A   Overcast
9:04 AM 39.2 °F 37.0 °F 37.4 °F 93% 29.99 in 3.0 mi South 3.5 mph - N/A   Overcast
9:53 AM 41.0 °F 36.4 °F 37.9 °F 89% 30.01 in 5.0 mi South 6.9 mph - N/A   Overcast
10:53 AM 42.1 °F 39.2 °F 39.0 °F 89% 30.00 in 5.0 mi South 4.6 mph - N/A   Overcast
11:53 AM 43.0 °F 41.3 °F 39.9 °F 89% 29.99 in 6.0 mi South 3.5 mph - N/A   Overcast
12:53 PM 44.1 °F 41.5 °F 39.0 °F 82% 29.97 in 9.0 mi SW 4.6 mph - N/A   Overcast
1:27 PM 44.6 °F 40.7 °F 39.2 °F 81% 29.95 in 8.0 mi SW 6.9 mph - N/A   Overcast
1:53 PM 44.1 °F 40.8 °F 39.0 °F 82% 29.95 in 8.0 mi SSW 5.8 mph - N/A   Overcast
2:53 PM 44.1 °F 41.5 °F 39.9 °F 85% 29.95 in 6.0 mi SSW 4.6 mph - N/A   Overcast
3:53 PM 45.0 °F 43.5 °F 39.9 °F 82% 29.96 in 7.0 mi SSW 3.5 mph - N/A   Overcast
4:17 PM 44.6 °F 43.1 °F 39.2 °F 81% 29.94 in 7.0 mi South 3.5 mph - N/A   Overcast
4:24 PM 44.6 °F 42.2 °F 39.2 °F 81% 29.93 in 7.0 mi South 4.6 mph - N/A   Overcast
4:53 PM 45.0 °F - 39.9 °F 82% 29.96 in 8.0 mi Calm Calm - N/A   Overcast
5:53 PM 45.0 °F - 39.9 °F 82% 29.96 in 7.0 mi Calm Calm - N/A   Overcast
6:53 PM 44.1 °F - 41.0 °F 89% 29.96 in 4.0 mi Calm Calm - 0.00 in   Overcast
7:24 PM 44.6 °F - 41.0 °F 87% 29.94 in 3.0 mi Calm Calm - N/A   Overcast
7:32 PM 44.6 °F - 41.0 °F 87% 29.95 in 2.5 mi Calm Calm - N/A   Overcast
7:53 PM 44.1 °F - 41.0 °F 89% 29.96 in 2.0 mi Calm Calm - 0.00 in   Overcast
8:00 PM 42.8 °F - 41.0 °F 93% 29.95 in 1.8 mi Calm Calm - N/A   Overcast
8:22 PM 42.8 °F - 39.2 °F 87% 29.94 in 2.0 mi Calm Calm - 0.01 in   Overcast
8:39 PM 42.8 °F - 39.2 °F 87% 29.94 in 1.5 mi Calm Calm - 0.01 in Rain Light Rain
8:53 PM 43.0 °F 41.3 °F 39.9 °F 89% 29.95 in 1.5 mi ESE 3.5 mph - 0.01 in   Overcast
9:25 PM 42.8 °F - 41.0 °F 93% 29.92 in 2.0 mi Calm Calm - N/A   Overcast
9:53 PM 44.1 °F 42.5 °F 41.0 °F 89% 29.93 in 2.5 mi East 3.5 mph - N/A   Overcast
10:02 PM 42.8 °F - 39.2 °F 87% 29.91 in 2.0 mi Calm Calm - 0.00 in Rain Light Rain
10:33 PM 42.8 °F - 41.0 °F 93% 29.90 in 2.0 mi Calm Calm - 0.00 in   Overcast
10:53 PM 44.1 °F - 41.0 °F 89% 29.92 in 2.5 mi Calm Calm - 0.01 in Rain Light Rain
11:53 PM 44.1 °F - 41.0 °F 89% 29.90 in 2.5 mi Calm Calm - 0.02 in Rain Light Rain
11:59 PM 44.6 °F - 41.0 °F 87% 29.89 in 1.8 mi Calm Calm - 0.01 in Rain Light Rain